Location: Lafig�re
(44.4503°N, 4.0357°E)
Time: 04:59:29
(UTC+00:00)

Transit 2A Rocket - Pass Details

Date: 27 June 2021
Orbit: 590 x 913 km, 66.7° (Epoch: 26 July)

Event Time Altitude Azimuth Distance (km) Brightness Sun altitude
Exits shadow 21:41:11 32° 144° (SE) 1,035 5.1 -16.4°
Maximum altitude 21:42:12 36° 114° (ESE) 947 5.1 -16.5°
Drops below altitude 10° 21:46:16 10° 47° (NE) 1,987 7.3 -16.9°
Sets 21:48:43 0° 39° (NE) 2,936 8.3 -17.1°
